www.pogodaiklimat.ru

Погода и климат >> Архив погоды >> Россия >> Свердловская область >> Ивдель


ПОГОДА в Ивдель

  • Прогноз погоды в Ивдель
  • Монитор погоды в Ивдель
  • Климат города

АРХИВ ПОГОДЫ в Ивдель

Время (UTC), дата Ветер
(напр.,м/с)
 
Видим.   Явления Облачность Т
(С)
Тd
(С)
f
(%)
Тe
(С)
Тes
(С)
Комфортность P
(гПа)
Po
(гПа)
Тmin
(С)
Tmax
(С)
R
(мм)
S
(см)
03 16.03 ЮЗ 1 50 км 9/0
[Ac trans Ci fib]
-12.6 -15.4 80 -15 -15 1018.7 1006.2 -12.8 47
06 16.03 ЮВ 1 50 км 4/0
[Ac lent Ci fib]
+1.2 -9.1 46 0 +4 1017.5 1005.7
09 16.03 ЮЗ 3 50 км 4/0
[Ac lent Ci fib]
+7.1 -11.0 26 +5 +9 1017.1 1005.5
12 16.03 ЮЗ 4
{10}
50 км 4/0
[Ac trans Ci fib]
+7.5 -12.8 22 +5 +6 1017.8 1006.2
15 16.03 Ю 2 10 км 3/0
[Ci fib]
+3.9 -11.9 30 +2 +2 1018.5 1006.7 +7.9
18 16.03 ЮЗ 2 10 км 3/0
[Ci fib]
-2.4 -10.7 53 -6 -6 1019.8 1007.7
21 16.03 Ю 2 20 км 3/0
[Ci fib]
-2.7 -9.8 58 -6 -6 1020.7 1008.6
00 17.03 ЮВ 2 20 км 1/0
[Ci fib]
-6.1 -9.9 74 -10 -10 1021.2 1009.0
03 17.03 В 1 40 км ясно -9.6 -11.7 85 -12 -12 1022.4 1010.0 -10.0 47
06 17.03 ЮВ 2 50 км 3/0
[Ci fib]
+1.2 -7.8 51 -2 +2 1021.9 1010.0
09 17.03 З 3 50 км 9/0
[Ac trans Ci fib]
+7.2 -8.5 32 +5 +7 1021.5 1009.8
12 17.03 ЮЗ 4 50 км 9/0
[Ac lent Ci fib]
+7.6 -9.5 29 +5 +6 1021.3 1009.7
15 17.03 Ю 3 10 км 9/0
[Ac trans]
+4.3 -11.5 31 +2 +2 1021.4 1009.6 +8.4
18 17.03 Ю 1 10 км 10/0
[Ac trans]
+3.6 -13.2 28 +3 +3 1021.8 1010.0
21 17.03 В 1 10 км 10/3 1000 м
[Sc Ac trans]
+0.4 -10.2 45 -1 -1 1021.9 1009.9
00 18.03 штиль 0 10 км 10/10 600 м
[Cb cap]
-1.9 -8.8 59 -3 -3 1022.5 1010.4
03 18.03 штиль 0 50 км 9/9 600 м
[Cb cap]
-1.4 -8.6 58 -2 -2 1022.7 1010.7 -2.0 46
06 18.03 СВ 1 50 км 10/0
[Cs]
+3.7 -7.7 43 +3 +7 1022.6 1010.8
09 18.03 Ю 3 50 км 9/1 1000 м
[Sc Ac lent Cs]
+7.5 -4.9 41 +5 +7 1021.1 1009.5
12 18.03 ЮЗ 4
{10}
50 км 10/3 1000 м
[Sc Ac trans Ci fib]
+7.1 -13.7 21 +5 +5 1020.6 1008.9
15 18.03 Ю 3 20 км 9/0
[Ac lent Ci fib]
+4.7 -12.9 27 +2 +2 1021.1 1009.3 +7.9
18 18.03 штиль 0 10 км 3/0
[Ci fib]
+0.9 -12.3 37 +1 +1 1021.2 1009.3
21 18.03 ЮВ 1 10 км 8/3 1000 м
[Sc Ci fib]
-0.6 -11.4 44 -2 -2 1021.3 1009.3
00 19.03 штиль 0 20 км 3/0
[Ci fib]
-6.1 -10.3 72 -7 -7 1022.1 1009.9
03 19.03 СЗ 1 50 км 5/1 1000 м
[Sc Ci fib]
-8.7 -11.9 78 -11 -11 1022.7 1010.3 -9.4 44
06 19.03 Ю 2 50 км 4/0
[Ci fib]
+3.0 -12.0 32 +1 +5 1022.5 1010.7
09 19.03 ЮЗ 3 50 км 1/0
[Ci fib]
+7.4 -6.5 37 +5 +9 1022.1 1010.4
12 19.03 Ю 3 50 км ясно +8.7 -6.9 32 +7 +8 1022.0 1010.4
15 19.03 штиль 0 20 км 3/0
[Ci fib]
+1.1 -8.8 48 +1 +1 1023.1 1011.1 +8.8
18 19.03 СЗ 1 10 км ясно -5.6 -8.6 79 -8 -8 1023.7 1011.5
21 19.03 СВ 1 10 км ясно -9.7 -11.6 86 -12 -12 1024.3 1011.9
00 20.03 штиль 0 20 км 3/0
[Ci fib]
-12.6 -14.1 89 -13 -13 1024.9 1012.3
03 20.03 штиль 0 50 км 3/0
[Ci fib]
-12.8 -15.0 84 -13 -12 1025.5 1012.9 -15.1 43
06 20.03 ЮВ 2 50 км 5/0
[Ci fib]
-2.1 -13.9 40 -5 -1 1024.9 1012.8
09 20.03 ЮВ 4 50 км 3/0
[Ci fib]
+4.5 -15.0 23 +1 +5 1023.5 1011.7
12 20.03 Ю 3 50 км 8/5 1000 м
[Sc Ac trans Ci fib]
+5.8 -16.3 19 +4 +4 1023.7 1012.0
15 20.03 Ю 3 20 км 9/8 1000 м
[Sc Ac trans]
+3.8 -16.3 21 +1 +1 1024.5 1012.7 +6.5
18 20.03 ЮВ 2 10 км 8/8 1000 м
[Sc]
+1.2 -16.1 26 -1 -1 1025.4 1013.4
21 20.03 ЮВ 1 10 км 1/0
[Ci fib]
-2.5 -16.5 33 -4 -4 1025.9 1013.8
00 21.03 ЮВ 1 20 км 3/0
[Ci fib]
-6.2 -15.3 48 -8 -8 1026.9 1014.6
03 21.03 штиль 0 50 км 8/0
[Ac trans Ci fib]
-8.5 -14.5 62 -9 -8 1027.9 1015.5 -9.1 42
06 21.03 ЮВ 2 50 км 9/0
[Ci fib]
-1.5 -14.7 36 -4 -1 1027.4 1015.3
09 21.03 ЮВ 3 50 км 9/0
[Ac lent Cs]
+3.7 -12.0 31 +1 +4 1026.5 1014.6
12 21.03 Ю 4 50 км 9/0
[Cs]
+5.6 -14.0 23 +3 +4 1026.0 1014.2
15 21.03 ЮВ 1 20 км 9/9 600 м
[Cb cap]
+1.4 -11.9 36 +1 +1 1026.9 1015.0 +5.7
18 21.03 ЮВ 2 10 км 9/9 600 м
[Cb cap]
-1.5 -12.3 44 -5 -5 1026.8 1014.7
21 21.03 штиль 0 10 км 4/3 1000 м
[Sc Ci fib]
-5.7 -10.5 69 -6 -6 1026.9 1014.6
00 22.03 штиль 0 10 км 3/0
[Ci fib]
-8.4 -11.1 81 -9 -9 1027.1 1014.7
03 22.03 штиль 0 50 км 9/8 630 м
[Cb cap Ac trans]
-8.1 -12.0 73 -9 -9 1026.8 1014.4 -9.3 41
06 22.03 штиль 0 40 км 9/3 1000 м
[Sc Ac trans]
-1.1 -12.0 43 -1 +1 1026.3 1014.2
09 22.03 ЮВ 3 50 км 9/1 1000 м
[Sc Cs]
+5.0 -11.2 30 +3 +6 1025.3 1013.5
12 22.03 Ю 3 50 км 10/3 1000 м
[Sc Ac lent Cs]
+7.6 -16.6 16 +6 +6 1024.8 1013.1
15 22.03 ЮВ 2 20 км 9/3 1000 м
[Sc Ac lent Ci fib]
+3.0 -12.2 32 +1 +1 1025.0 1013.1 +8.3
18 22.03 Ю 2 10 км 10/3 1000 м
[Sc Ac As]
+3.7 -16.2 22 +2 +2 1024.5 1012.7
21 22.03 Ю 1 10 км 9/0
[Ac trans Ci fib]
-0.4 -13.0 38 -1 -1 1024.6 1012.6

 

Местоположение метеостанции Ивдель (Свердловская область, Россия): широта 60.68 долгота 60.45 высота над уровнем моря 94 м.

В архиве по умолчанию представлена погода в Ивдель за последнюю неделю. Архивные данные за месяц целиком и за предыдущие месяцы, начиная с января 2011 года, Вы можете получить, выбрав интересующий диапазон дат из раскрывающегося списка и нажав кнопку "Ввод!".

Внимание! Время в таблицах - всемирное. Для получения местного времени необходимо прибавить поправку, которая в Ивдель равна 5 ч.

Смотрите также архив погоды в соседних городах и на ближайших метеорологических станциях:

Погода в Североуральске (Свердловская область, Россия) (56 км)
Погода в Атымье (Свердловская область, Россия) (103 км)
Погода в Карпинске (Свердловская область, Россия) (106 км)
Погода в Серове (Свердловская область, Россия) (120 км)
Погода в Кытлыме (Свердловская область, Россия) (148 км)
Погода в Гари (Свердловская область, Россия) (174 км)
Погода в Няксимволе (Ханты-Мансийский АО, Россия) (196 км)
Погода в Верхотурье (Свердловская область, Россия) (202 км)
Погода в Ныробе (Пермский край, Россия) (203 км)
Погода в Шаиме (Ханты-Мансийский АО, Россия) (210 км)

Пояснения к столбцам:

Ветер - указаны скорость ветра в м/с - средняя за 10 мин, порывы в срок и между сроками (в фигурных скобках) и направление, откуда дует ветер: С - северный, СВ - северо-восточный, В - восточный, ЮВ - юго-восточный, Ю - южный, ЮЗ - юго-западный, З - западный, СЗ - северо-западный.
Видимость - горизонтальная дальность видимости в метрах или километрах. При видимости от 1 до 10 км при отсутствии осадков обычно наблюдается дымка, при ухудшении видимости до 1 км и менее - туман. В сухую погоду видимость может ухудшаться дымом, пылью или мглою.
Явления - указаны атмосферные явления, наблюдавшиеся в срок или в последний час перед сроком; фигурными скобками обозначены явления, наблюдавшиеся между сроками (за 1-3 часа до срока); квадратными скобками обозначены град или гололедные отложения с указанием их диаметра в мм.
Облачность - указаны через наклонную черту общая и нижняя облачность в баллах и высота нижней границы облаков в метрах; квадратными скобками обозначены формы облаков: Ci - перистые, Cs - перисто-слоистые, Cc - перисто-кучевые, Ac - высококучевые, As - высокослоистые, Sc - слоисто-кучевые, Ns - слоисто-дождевые, Cu - кучевые, Cb - кучево-дождевые. Подробнее классификацию облаков см. в Атласе облаков (PDF).
T - Температура воздуха - температура, измеренная на высоте 2 м над землей.
Td - Температура точки росы - температура, при понижении до которой содержащийся в воздухе водяной пар достигнет насыщения.
f - Относительная влажность воздуха - влажноcть воздуха, измеренная на высоте 2 м над землей.
Te - Эффективная температура - температура, которую ощущает одетый по сезону человек в тени. Характеристика душности погоды. При расчете учитывается влияние влажности воздуха и скорости ветра на теплоощущения человека.
Tes - Эффективная температура на солнце - температура, которую ощущает человек, с поправкой на солнечный нагрев. Характеристика знойности погоды. Зависит от высоты солнца над горизонтом, облачности и скорости ветра. Ночью, в пасмурную погоду, а также при ветре 12 м/с и более поправка равна нулю.
P - Атмосферное давление - приведенное к уровню моря атмосферное давление.
Po - Атмосферное давление - измеренное на уровне метеостанции атмосферное давление.
Tmin - Минимальная температура - минимум температуры воздуха на высоте 2 м над землей.
Tmax - Максимальная температура - максимум температуры воздуха на высоте 2 м над землей.
R - Количество осадков - Количество выпавших осадков, мм. При наведении курсора мыши на число - период времени, за который выпало указанное количество осадков.
S - Снежный покров - Высота снежного покрова, см. При наведении курсора мыши на число - состояние снежного покрова и степень покрытия местности в баллах.